Home > Weather > Lage > Past weeks

Flag for Germany Weather for the Past 2 Weeks in Lage, North Rhine-Westphalia, Germany

Now
59 °F

Refreshingly cool.


Feels Like: 58 °F
Forecast: 49 / 73 °F
Wind: 8 mph from South

Location: Bueckeburg

Current Time: May 5, 2016 at 12:29:28 PM

Latest Report: May 5, 2016 at 11:20 AM


Visibility: N/A

Pressure: 30.33 "Hg

Humidity: 45%

Dew Point: 37 °F

Location of LageLocation

Historic Weather in Lage — Graph

°F

Lage Temperature Yesterday

Maximum temperature yesterday: 59 °F (at 6:20 PM)
Minimum temperature yesterday: 36 °F (at 3:20 AM)
Average temperature yesterday: 47 °F

High & Low Weather Summary for the Past Weeks

 TemperatureHumidityPressure
High68 °F (May 2, 4:20 PM)100% (Apr 21, 7:20 AM)30.45 "Hg (Apr 21, 7:20 AM)
Low32 °F (Apr 21, 6:20 AM)34% (May 4, 6:20 PM)29.39 "Hg (Apr 26, 1:20 PM)
Average45 °F74%30.00 "Hg
* Reported Apr 20 10:20 AM — May 5 10:20 AM, Lage, Weather by CustomWeather, © 2016

Note: Actual official high and low records may vary slightly from our data, if they occured in-between our weather recording intervals... More about our weather records

Advertising

Lage Weather History for the Previous 24 Hours

Scroll right to see more
 ConditionsComfort  
Time TempWeatherWind HumidityBarometerVisibility
10:20 AM
Thu, May 5
57 °FRefreshingly cool.8 mph41%30.36 "HgN/A
9:20 AM54 °FCool.2 mph63%30.36 "HgN/A
8:20 AM46 °FCool.2 mph76%30.36 "HgN/A
7:20 AM41 °FQuite cool.1 mph87%30.36 "HgN/A
6:20 AM36 °FChilly.2 mph93%30.36 "HgN/A
5:20 AM36 °FChilly.1 mph93%30.36 "HgN/A
4:20 AM37 °FChilly.5 mph87%30.36 "HgN/A
3:20 AM37 °FChilly.3 mph87%30.36 "HgN/A
2:20 AM39 °FChilly.2 mph87%30.36 "HgN/A
1:20 AM43 °FQuite cool.2 mph76%30.36 "HgN/A
12:20 AM43 °FQuite cool.3 mph76%30.39 "HgN/A
11:20 PM
Wed, May 4
45 °FQuite cool.3 mph71%30.39 "HgN/A
10:20 PM46 °FCool.3 mph66%30.39 "HgN/A
9:20 PM50 °FCool.2 mph62%30.36 "HgN/A
8:20 PM55 °FRefreshingly cool.3 mph41%30.36 "HgN/A
7:20 PM57 °FRefreshingly cool.7 mph39%30.36 "HgN/A
6:20 PM59 °FRefreshingly cool.6 mph34%30.36 "HgN/A
5:20 PM57 °FRefreshingly cool.8 mph39%30.36 "HgN/A
4:20 PM57 °FRefreshingly cool.5 mph39%30.39 "HgN/A
3:20 PM57 °FRefreshingly cool.5 mph41%30.39 "HgN/A
2:20 PM55 °FRefreshingly cool.5 mph44%30.39 "HgN/A
1:20 PM55 °FRefreshingly cool.5 mph44%30.39 "HgN/A
12:20 PM54 °FCool.5 mph51%30.39 "HgN/A
Weather by CustomWeather, © 2016

See weather overviewHow to use our weather pages